TimeEDT,TemperatureF,Dew PointF,Humidity,Sea Level PressureIn,VisibilityMPH,Wind Direction,Wind SpeedMPH,Gust SpeedMPH,PrecipitationIn,Events,Conditions,WindDirDegrees,DateUTC
12:53 AM,51.1,37.9,61,30.23,10.0,Calm,Calm,-,N/A,,Clear,0,2013-05-27 04:53:00
2:53 AM,46.0,37.0,71,30.25,10.0,Calm,Calm,-,N/A,,Clear,0,2013-05-27 06:53:00
3:53 AM,45.0,37.0,74,30.25,10.0,WSW,3.5,-,N/A,,Clear,240,2013-05-27 07:53:00
4:53 AM,45.0,37.0,74,30.25,10.0,Calm,Calm,-,N/A,,Clear,0,2013-05-27 08:53:00
5:53 AM,44.1,36.0,73,30.26,10.0,Calm,Calm,-,N/A,,Clear,0,2013-05-27 09:53:00
6:53 AM,44.1,37.0,76,30.26,10.0,Calm,Calm,-,N/A,,Clear,0,2013-05-27 10:53:00
7:53 AM,54.0,39.0,57,30.26,10.0,Calm,Calm,-,N/A,,Clear,0,2013-05-27 11:53:00
8:53 AM,62.1,34.0,35,30.25,10.0,Calm,Calm,-,N/A,,Clear,0,2013-05-27 12:53:00
9:53 AM,64.0,37.0,37,30.27,10.0,Calm,Calm,-,N/A,,Clear,0,2013-05-27 13:53:00
10:53 AM,66.0,39.0,37,30.26,10.0,Variable,5.8,-,N/A,,Clear,0,2013-05-27 14:53:00
11:53 AM,66.9,36.0,32,30.26,10.0,NW,4.6,-,N/A,,Clear,310,2013-05-27 15:53:00
12:53 PM,68.0,39.0,35,30.24,10.0,West,4.6,-,N/A,,Clear,260,2013-05-27 16:53:00
1:53 PM,66.9,39.0,36,30.23,10.0,Variable,4.6,-,N/A,,Clear,0,2013-05-27 17:53:00
2:53 PM,66.0,37.9,36,30.22,10.0,Variable,5.8,-,N/A,,Clear,0,2013-05-27 18:53:00
3:53 PM,66.0,41.0,40,30.21,10.0,Variable,6.9,-,N/A,,Clear,0,2013-05-27 19:53:00
4:53 PM,66.0,41.0,40,30.19,10.0,SW,4.6,-,N/A,,Clear,230,2013-05-27 20:53:00
5:53 PM,66.0,42.1,42,30.20,10.0,Variable,4.6,-,N/A,,Clear,0,2013-05-27 21:53:00
6:53 PM,64.9,42.1,43,30.18,10.0,Calm,Calm,-,N/A,,Partly Cloudy,0,2013-05-27 22:53:00
7:53 PM,63.0,45.0,52,30.19,10.0,Calm,Calm,-,N/A,,Overcast,0,2013-05-27 23:53:00
8:53 PM,61.0,46.0,58,30.17,10.0,Calm,Calm,-,N/A,,Overcast,0,2013-05-28 00:53:00
9:53 PM,59.0,48.0,67,30.19,10.0,Calm,Calm,-,N/A,,Overcast,0,2013-05-28 01:53:00
10:53 PM,57.0,48.9,74,30.19,10.0,WSW,3.5,-,N/A,,Mostly Cloudy,250,2013-05-28 02:53:00
11:53 PM,59.0,46.9,64,30.19,10.0,Calm,Calm,-,N/A,,Overcast,0,2013-05-28 03:53:00